Chongqing, China

8:21 AM CST on November 21, 2019 (GMT +0800)
Jiangbei

Weather History for ZUCK - September, 2019

Change the Weather History Date:

Thursday, September 19, 2019

  Actual Average Record
Temperature  
Mean Temperature 68 °F -  
Max Temperature 71 °F - - ()
Min Temperature 66 °F - - ()
Cooling Degree Days 4    
Growing Degree Days 18 (Base 50)    
Moisture  
Dew Point 67 °F    
Average Humidity 94    
Maximum Humidity 100    
Minimum Humidity 78    
Precipitation  
Precipitation 0.12 in - - ()
Sea Level Pressure  
Sea Level Pressure 30.07 in    
Wind  
Wind Speed 7 mph ()    
Max Wind Speed 11 mph    
Max Gust Speed -    
Visibility 4.7 miles    
Events Rain    
T = Trace of Precipitation, MM = Missing Value Source: Averaged Metar Reports

Daily Weather History Graph

Daily Weather History Graph

Search for Another Location

Airport or City:

Astronomy

Sep. 19, 2019 Rise Set
Actual Time 6:39 AM CST 6:54 PM CST
Civil Twilight 6:15 AM CST 7:18 PM CST
Nautical Twilight 5:48 AM CST 7:46 PM CST
Astronomical Twilight 5:19 AM CST 8:14 PM CST
Moon 10:04 PM CST (9/19) 10:51 AM CST (9/19)
Length of Visible Light 13h 02m
Length of Day
12h 14m
Waning Gibbous, 79% of the Moon is Illuminated
Sep 19
Waning Gibbous
Sep 22
Last Quarter
Sep 29
New
Oct 6
First Quarter
Oct 14
Full

Hourly Weather History & Observations

Time (CST) Temp. Dew Point Humidity Pressure Visibility Wind Dir Wind Speed Gust Speed Precip Events Conditions
12:00 AM 68.0 °F 68.0 °F 100% 30.12 in 4.3 mi NNE 6.7 mph - N/A Rain Light Rain
1:00 AM 68.0 °F 68.0 °F 100% 30.09 in 4.3 mi North 8.9 mph - N/A Rain Light Rain
2:00 AM 69 °F 67 °F 92% 30.05 in 2 mi Calm Calm - - Rain Light Rain
2:00 AM 68.0 °F 68.0 °F 100% 30.09 in 4.3 mi NNE 8.9 mph - N/A Rain Light Rain
3:00 AM 68.0 °F 68.0 °F 100% 30.09 in 5.6 mi NNE 6.7 mph - N/A Rain Light Rain
4:00 AM 68.0 °F 68.0 °F 100% 30.09 in 5.0 mi NE 6.7 mph - N/A Rain Light Rain
5:00 AM 69 °F 67 °F 92% 30.03 in 3 mi NNW 4.5 mph - -   Mist
5:00 AM 68.0 °F 68.0 °F 100% 30.06 in 6.2 mi North 6.7 mph - N/A   Overcast
6:00 AM 66.2 °F 66.2 °F 100% 30.06 in 6.2 mi NNE 8.9 mph - N/A   Overcast
7:00 AM 66.2 °F 66.2 °F 100% 30.06 in 6.2 mi North 8.9 mph - N/A   Overcast
8:00 AM 68.0 °F 68.0 °F 100% 30.09 in 6.2 mi NNE 8.9 mph - N/A   Overcast
9:00 AM 68.0 °F 66.2 °F 94% 30.09 in 6.2 mi NNE 11.2 mph - N/A   Overcast
10:00 AM 68.0 °F 66.2 °F 94% 30.12 in 6.2 mi NNE 11.2 mph - N/A   Scattered Clouds
11:00 AM 71 °F 67 °F 82% 30.07 in 6 mi NNW 4.5 mph - -   Overcast
11:00 AM 69.8 °F 66.2 °F 88% 30.12 in 6.2 mi NNE 11.2 mph - N/A   Scattered Clouds
12:00 PM 71.6 °F 66.2 °F 83% 30.09 in 6.2 mi NNE 11.2 mph - N/A   Scattered Clouds
1:00 PM 71.6 °F 66.2 °F 83% 30.09 in 6.2 mi North 8.9 mph - N/A   Scattered Clouds
2:00 PM 71 °F 66 °F 78% 30.03 in 5 mi NNW 6.7 mph - -   Overcast
2:00 PM 69.8 °F 66.2 °F 88% 30.06 in 6.2 mi NNE 11.2 mph - N/A   Scattered Clouds
3:00 PM 69.8 °F 66.2 °F 88% 30.06 in 6.2 mi North 8.9 mph - N/A   Scattered Clouds
4:00 PM 68.0 °F 66.2 °F 94% 30.06 in 5.0 mi North 11.2 mph - N/A   Scattered Clouds
5:00 PM 68 °F 66 °F 93% 30.01 in 1 mi NNW 4.5 mph - - Rain Light Rain
5:00 PM 66.2 °F 66.2 °F 100% 30.06 in 1.7 mi North 6.7 mph - N/A Rain Light Rain
6:00 PM 66.2 °F 66.2 °F 100% 30.06 in - North 6.7 mph - N/A Rain Light Rain
7:00 PM 66.2 °F 66.2 °F 100% 30.06 in 2.8 mi North 8.9 mph - N/A Rain Light Rain
8:00 PM 67 °F 66 °F 96% 30.04 in 1 mi NW 4.5 mph - - Rain Light Rain
8:00 PM 66.2 °F 66.2 °F 100% 30.09 in 5.0 mi NNE 6.7 mph - N/A Rain Light Rain
11:00 PM 66.2 °F 66.2 °F 100% 30.12 in 2.5 mi NNW 4.5 mph - N/A Rain Light Rain